Weather in Malaryta

Belarus     51°47′30″N   24°05′00″E
temp.,
°C
wind,
m/s
gust,
m/s
humid.,
%
clouds,
%
prec.,
mm/h
press.,
hPa
HPBL,
m
19 april, mon
mon1900:00+9e389193 1.3 1019199
03:00+6ene36955 1.3 1019134
06:00+5ene3796100 0.0 1019171
09:00+9e59781 0.0 1019558
12:00+13e575595 0.0 10191671
15:00+12ne5657100 0.1 10181320
18:00+10ene476526 0.1 10181096
21:00+9ne51068100 0.1 1018620
20 april, tue
tue2000:00+8ene3875100 0.0 1018330
03:00+7ne3782100 0.1 1017245
06:00+6ne379192 0.1 1016265
09:00+8ene468070 0.1 1016481
12:00+11ene456686 0.8 10151081
15:00+12ne335793 1.5 10141305
18:00+12nne335499 0.3 10121527
21:00+9nne226599 0.3 101328
21 april, wed
wed2100:00+7wnw007257 0.0 101210
03:00+6wsw238168 0.0 101144
06:00+5w369255 0.1 1011122
09:00+8wnw4679100 0.3 1011404
12:00+12wnw566393 0.8 10101148
15:00+14w674471 1.3 10102158
18:00+14w575053 0.0 10091890
21:00+9wsw23718 0.1 101034
22 april, thu
thu2200:00+8sw368021 0.1 1010135
03:00+7sw499083 0.1 1010191
06:00+8wsw5109177 0.3 1011557
09:00+6wnw497624 0.4 1013780
12:00+10w694859 0.0 10141600
15:00+11w893993 0.0 10141894
18:00+10w6942100 0.0 10151966
21:00+7w4854100 0.0 1015496
23 april, fri
fri2300:00+4w386513 0.0 1016362
03:00+2wsw410730 0.0 1016316
06:00+1sw512761 0.0 1016360
09:00+5w7116561 0.0 1016964
12:00+5w7966100 0.0 10181352
15:00+6w7106777 0.1 10191224
18:00+6wnw697798 1.0 10191162
21:00+3w23870 1.3 102042